Visibility
15.0 15.0 15.0 14.6 15.0 15.0 15.0 15.0 15.0 15.0 15.0 15.0 15.0 15.0 15.0 13.8 12.7 4.5 10.2 15.0 15.0 12.4 15.0 15.0 15.0 15.0 15.0 12.1 0.2 9.5 10.8 12.4 1.0 0.8 15.0 15.0 15.0 15.0 15.0 15.0 15.0 15.0 5.2 0.8 9.6 7.0 9.9 15.0 15.0 12.7 15.0 15.0 15.0 12.6
15.0 15.0 7.4 15.0 15.0 15.0 15.0 15.0 15.0 15.0 15.0 15.0 15.0 15.0 12.4 15.0 6.7 8.3 0.2 15.0 15.0 15.0 15.0 15.0 15.0 15.0 15.0 15.0 15.0 14.1 0.0 0.0 0.0 0.0 4.2 2.0 2.0 12.9 15.0 15.0 7.0 0.1 0.6 2.6 15.0 15.0 15.0 15.0 13.6 15.0 8.7 7.7 6.5 13.0
15.0 13.8 15.0 15.0 15.0 15.0 15.0 15.0 15.0 15.0 15.0 15.0 15.0 15.0 15.0 15.0 7.3 7.7 11.7 15.0 2.4 0.0 0.4 15.0 15.0 15.0 15.0 15.0 15.0 15.0 10.5 5.3 0.0 0.9 0.2 8.9 15.0 0.3 0.4 12.5 0.0 0.0 0.4 4.9 6.6 2.8 2.1 8.5 14.8 14.7 8.9 12.8 11.5 15.0
15.0 15.0 15.0 15.0 15.0 15.0 15.0 15.0 15.0 15.0 15.0 15.0 15.0 15.0 11.0 15.0 8.8 4.6 5.0 12.0 1.4 0.1 8.4 15.0 15.0 15.0 15.0 15.0 15.0 15.0 15.0 15.0 15.0 4.8 11.7 4.0 9.3 15.0 8.1 12.8 0.0 0.0 0.5 0.0 0.0 0.0 0.1 7.5 10.2 10.8 14.6 15.0 13.5 15.0
15.0 15.0 15.0 15.0 15.0 15.0 14.6 12.2 12.3 15.0 15.0 15.0 15.0 15.0 14.2 11.2 6.0 9.4 15.0 15.0 14.9 11.1 1.5 4.7 15.0 15.0 15.0 15.0 15.0 15.0 15.0 15.0 15.0 11.0 15.0 15.0 15.0 4.6 10.2 1.3 0.0 0.1 0.0 0.0 0.0 0.0 0.0 0.0 0.4 3.8 6.0 10.6 15.0 15.0
15.0 15.0 15.0 15.0 15.0 15.0 15.0 15.0 15.0 15.0 15.0 15.0 15.0 15.0 11.9 11.3 5.3 15.0 0.1 6.4 15.0 15.0 15.0 15.0 15.0 15.0 15.0 15.0 15.0 15.0 15.0 15.0 15.0 15.0 15.0 15.0 15.0 0.5 0.0 0.0 0.0 0.0 0.1 1.0 0.0 0.0 0.0 0.0 2.0 10.6 13.0 15.0 15.0 15.0
15.0 15.0 15.0 15.0 15.0 15.0 15.0 15.0 15.0 15.0 9.8 15.0 12.9 12.6 9.6 9.2 7.2 0.1 15.0 15.0 15.0 15.0 0.1 1.3 3.9 15.0 6.7 15.0 15.0 15.0 15.0 15.0 12.3 0.1 0.1 15.0 15.0 14.0 0.0 0.2 0.1 0.2 15.0 15.0 14.5 2.6 7.0 0.9 0.3 15.0 15.0 15.0 15.0 15.0
15.0 15.0 15.0 15.0 15.0 15.0 15.0 15.0 15.0 15.0 15.0 14.7 11.5 14.7 9.4 13.4 4.4 15.0 15.0 15.0 15.0 0.1 0.0 0.1 6.1 7.5 15.0 13.4 0.7 15.0 15.0 14.4 7.1 7.6 3.4 4.8 15.0 4.2 1.5 0.6 15.0 15.0 15.0 10.9 15.0 15.0 15.0 15.0 15.0 15.0 15.0 15.0 15.0 15.0
15.0 15.0 15.0 15.0 15.0 15.0 15.0 15.0 15.0 12.8 15.0 12.6 9.3 11.0 2.5 2.8 0.1 0.6 15.0 15.0 15.0 0.1 11.5 3.5 12.4 11.7 15.0 6.8 9.3 3.9 10.2 0.1 15.0 0.1 15.0 7.7 0.2 0.3 0.2 0.6 3.8 15.0 8.0 9.9 15.0 15.0 15.0 15.0 15.0 15.0 15.0 15.0 15.0 8.5
15.0 15.0 15.0 14.9 15.0 15.0 15.0 15.0 15.0 15.0 6.9 7.5 6.9 0.1 0.0 0.7 15.0 15.0 0.1 0.0 0.0 0.1 1.2 1.8 5.6 1.1 0.1 8.3 0.0 0.1 0.1 10.8 0.3 10.7 0.2 0.1 0.1 0.4 14.8 15.0 15.0 15.0 15.0 15.0 15.0 9.2 0.2 4.6 15.0 14.8 6.2 10.2 3.8 1.8
15.0 15.0 14.3 15.0 15.0 15.0 15.0 13.6 14.4 9.8 3.0 3.0 0.0 0.0 1.0 14.7 5.5 0.1 0.0 0.0 0.0 0.4 0.5 12.7 15.0 0.2 7.1 0.1 2.5 5.1 0.0 0.0 0.5 13.9 2.1 0.1 0.4 0.4 15.0 15.0 14.2 15.0 15.0 11.7 9.7 1.8 1.2 1.0 1.3 1.5 0.5 1.6 1.3 0.5
10.3 5.9 14.7 15.0 15.0 15.0 14.9 6.3 5.0 4.2 3.6 8.6 2.9 8.4 8.4 0.1 0.0 0.0 0.1 0.0 10.8 15.0 15.0 11.9 0.5 8.7 0.1 6.1 0.0 0.8 0.3 0.0 2.8 0.1 0.1 1.5 0.1 0.9 15.0 15.0 15.0 15.0 15.0 15.0 15.0 15.0 13.1 4.7 7.5 6.8 2.2 0.6 0.4 0.4
7.7 14.7 15.0 15.0 15.0 15.0 13.8 6.6 15.0 15.0 15.0 15.0 2.7 0.0 0.1 0.0 0.1 0.5 0.1 0.2 7.9 0.0 0.0 0.1 0.0 0.3 2.1 0.3 0.1 3.8 15.0 1.6 0.0 0.1 0.3 0.7 0.4 8.0 15.0 15.0 15.0 15.0 15.0 15.0 8.9 5.1 5.9 1.5 1.6 1.9 0.4 0.3 0.4 0.3
15.0 15.0 9.1 13.7 10.7 14.7 15.0 14.9 5.0 9.4 15.0 2.3 2.0 2.0 0.2 4.4 3.3 5.3 1.1 0.5 0.1 0.1 4.3 15.0 0.1 0.2 0.8 12.0 0.1 0.1 7.6 15.0 1.6 2.6 6.7 1.3 1.0 0.9 14.9 15.0 15.0 3.4 4.4 3.7 1.9 3.1 2.5 2.3 0.4 0.3 0.5 0.4 0.5 0.3
15.0 15.0 8.5 11.8 15.0 12.8 15.0 15.0 15.0 15.0 15.0 15.0 15.0 0.5 4.4 9.8 0.7 0.3 0.1 9.8 0.0 0.0 0.0 15.0 15.0 15.0 0.9 2.7 11.4 15.0 2.7 3.0 2.8 8.2 2.4 0.7 1.0 4.9 3.5 7.5 3.3 3.1 3.7 3.4 3.8 3.3 1.5 2.2 1.8 0.5 0.8 1.0 1.1 0.5
15.0 15.0 15.0 15.0 13.0 14.4 13.9 15.0 15.0 15.0 15.0 15.0 9.0 0.6 0.2 8.5 0.2 0.3 0.3 0.3 0.0 0.0 0.0 10.1 9.8 15.0 12.9 12.7 15.0 1.1 2.4 8.2 1.5 1.5 1.5 0.7 1.3 1.0 1.2 2.4 1.9 3.4 4.2 2.6 4.4 4.6 9.1 3.6 1.7 0.4 0.4 0.4 0.3 0.3
15.0 15.0 15.0 15.0 15.0 15.0 15.0 15.0 15.0 15.0 15.0 15.0 0.8 0.6 1.7 2.0 0.1 0.1 0.2 0.4 0.0 0.0 0.5 15.0 15.0 2.7 14.0 15.0 4.8 2.4 3.9 2.6 0.7 0.4 1.9 4.4 3.9 1.0 1.5 1.9 2.0 4.4 4.4 4.1 4.1 6.2 5.5 14.2 15.0 4.4 0.7 0.2 0.3 1.9
15.0 15.0 15.0 15.0 15.0 15.0 15.0 15.0 15.0 15.0 1.1 2.1 3.2 0.4 1.7 0.8 0.3 0.2 1.7 15.0 15.0 15.0 15.0 15.0 15.0 13.1 2.0 6.8 1.8 0.7 0.3 0.4 2.7 2.1 1.4 3.3 3.6 4.2 6.9 4.2 4.4 4.8 4.6 4.6 4.9 3.4 3.2 1.7 2.5 1.1 0.9 0.4 2.6 15.0
15.0 15.0 15.0 15.0 15.0 15.0 15.0 15.0 15.0 11.8 0.6 2.0 1.8 4.9 1.4 0.5 12.2 15.0 15.0 15.0 15.0 15.0 15.0 15.0 14.4 2.3 1.2 1.1 0.9 1.1 1.8 7.3 0.7 0.5 0.8 1.7 4.6 4.6 4.4 5.5 2.7 0.9 0.5 0.4 0.5 0.6 0.5 0.9 1.0 0.3 0.5 7.2 1.1 3.1
15.0 15.0 15.0 15.0 15.0 15.0 15.0 15.0 15.0 15.0 2.1 1.5 15.0 1.1 0.4 2.6 10.6 15.0 15.0 15.0 15.0 15.0 9.6 6.0 0.5 0.3 1.0 2.0 5.5 9.2 14.2 15.0 14.7 4.1 1.0 1.0 4.0 4.5 4.7 5.4 2.0 0.9 0.4 0.4 0.3 3.1 1.4 0.5 1.7 1.2 1.1 1.4 0.6 0.3
15.0 15.0 15.0 15.0 15.0 15.0 15.0 15.0 15.0 15.0 15.0 11.6 15.0 15.0 2.0 15.0 15.0 15.0 15.0 15.0 15.0 3.0 0.7 0.4 0.2 0.1 14.8 10.5 13.9 15.0 5.6 15.0 5.5 15.0 3.1 1.2 4.1 2.5 0.2 0.2 0.5 0.8 0.6 1.4 3.6 1.2 6.7 3.6 4.1 14.9 11.3 4.4 5.1 3.5
15.0 15.0 15.0 15.0 15.0 15.0 15.0 15.0 15.0 15.0 12.5 10.5 0.2 3.3 2.1 0.8 11.5 15.0 15.0 13.3 1.8 0.1 0.5 0.2 0.8 9.1 15.0 15.0 15.0 15.0 6.0 14.4 15.0 14.6 12.4 11.7 0.8 2.7 2.3 0.8 15.0 4.1 3.0 1.2 11.9 7.5 4.4 4.1 4.1 4.1 4.1 4.1 4.5 4.9
15.0 15.0 15.0 15.0 15.0 15.0 15.0 15.0 15.0 15.0 11.5 4.7 15.0 3.0 9.3 15.0 15.0 15.0 5.8 4.3 0.2 0.8 15.0 15.0 15.0 15.0 15.0 15.0 15.0 15.0 15.0 15.0 15.0 15.0 15.0 15.0 15.0 15.0 15.0 15.0 15.0 15.0 7.4 4.0 11.3 15.0 15.0 5.4 12.2 8.9 12.1 15.0 15.0 15.0
15.0 15.0 15.0 15.0 15.0 0.7 15.0 15.0 15.0 15.0 15.0 10.5 15.0 3.6 8.2 15.0 15.0 15.0 1.3 1.3 3.5 13.4 15.0 15.0 15.0 15.0 15.0 15.0 15.0 15.0 15.0 15.0 15.0 15.0 13.9 15.0 15.0 15.0 15.0 15.0 15.0 5.1 10.5 6.4 7.7 5.0 13.1 15.0 10.8 11.6 4.8 5.7 3.0 0.8
15.0 15.0 15.0 13.6 15.0 15.0 15.0 15.0 15.0 15.0 15.0 15.0 11.0 15.0 15.0 15.0 15.0 4.0 0.3 0.7 3.4 7.0 14.5 14.6 15.0 15.0 15.0 11.4 15.0 15.0 15.0 15.0 15.0 15.0 15.0 8.5 8.3 8.2 15.0 15.0 11.9 4.5 6.8 4.3 3.8 15.0 15.0 13.6 15.0 15.0 15.0 15.0 5.9 2.8
9.1 15.0 15.0 15.0 15.0 15.0 15.0 15.0 15.0 15.0 15.0 14.5 15.0 14.1 15.0 15.0 9.2 0.8 3.5 2.8 4.1 5.5 5.2 3.4 0.9 15.0 12.2 15.0 15.0 12.7 15.0 15.0 15.0 15.0 12.4 15.0 12.2 4.1 4.6 5.2 4.1 4.6 4.8 10.7 7.0 2.6 13.2 9.5 15.0 15.0 15.0 15.0 15.0 15.0
7.4 13.2 15.0 15.0 15.0 15.0 15.0 15.0 15.0 15.0 15.0 8.3 4.8 14.3 15.0 3.4 2.5 0.4 0.2 3.7 1.3 3.8 8.5 15.0 15.0 15.0 14.7 15.0 15.0 15.0 15.0 15.0 15.0 15.0 15.0 15.0 15.0 15.0 15.0 5.4 1.4 1.9 4.0 15.0 11.4 13.0 1.1 1.2 5.7 10.5 10.8 2.0 4.1 4.3
13.5 15.0 2.5 3.1 13.7 15.0 14.6 14.2 7.9 7.6 15.0 14.0 15.0 3.7 6.2 8.7 0.9 0.1 0.4 4.9 15.0 15.0 15.0 15.0 15.0 15.0 15.0 15.0 15.0 15.0 15.0 15.0 15.0 15.0 15.0 15.0 4.7 15.0 13.6 14.1 15.0 8.1 15.0 15.0 13.5 9.8 8.3 3.8 2.4 1.9 3.3 4.1 4.0 2.0
10.2 15.0 15.0 15.0 15.0 15.0 0.7 0.6 0.8 1.6 2.9 7.0 8.9 2.8 0.8 0.4 0.4 0.4 0.9 13.6 15.0 15.0 15.0 14.4 3.2 8.6 3.2 4.2 6.4 4.1 4.1 6.3 5.0 2.0 2.0 1.5 1.5 4.6 6.4 8.1 15.0 15.0 5.1 4.0 5.8 10.2 4.5 5.6 13.7 15.0 15.0 15.0 13.6 5.2
15.0 15.0 15.0 10.4 7.9 0.7 0.2 3.0 2.6 4.6 7.5 4.0 1.0 0.7 0.5 0.1 0.1 1.9 12.8 15.0 15.0 15.0 15.0 11.3 4.8 15.0 5.4 6.5 1.8 11.0 9.8 4.0 4.1 14.8 5.9 3.3 5.2 0.8 1.5 2.1 5.8 4.4 6.6 10.2 6.9 13.0 7.5 6.4 14.6 15.0 15.0 5.7 3.5 8.9
15.0 15.0 15.0 11.0 0.4 0.2 0.6 10.1 15.0 15.0 15.0 15.0 9.5 3.8 0.3 0.1 0.1 0.1 0.3 2.6 5.3 4.1 4.5 1.9 2.4 4.6 8.1 4.1 2.4 2.4 3.1 12.5 4.8 3.8 4.0 3.8 3.7 4.8 5.2 11.5 15.0 4.3 10.8 10.3 4.1 4.2 14.1 9.9 4.8 5.6 8.0 6.3 6.4 10.5
11.5 15.0 8.4 1.6 0.2 0.7 0.2 14.4 4.4 3.0 4.3 11.2 4.8 4.9 9.6 13.8 0.9 0.3 0.2 0.3 4.0 5.3 3.7 7.0 3.6 1.3 3.2 2.7 4.7 4.2 15.0 2.9 4.0 1.9 4.1 4.1 3.3 2.1 1.9 2.6 3.2 8.6 11.5 4.4 4.7 4.2 2.4 3.6 4.1 4.4 4.5 15.0 15.0 12.1
15.0 15.0 8.7 7.7 2.7 1.8 0.9 1.3 9.6 1.3 1.0 1.1 0.4 0.3 0.6 8.0 2.2 0.9 0.5 0.8 4.2 7.7 9.5 5.8 5.9 8.5 15.0 15.0 7.3 5.6 5.4 4.1 4.1 5.8 1.1 3.6 6.9 4.8 7.5 13.1 11.0 13.6 15.0 7.0 4.8 4.1 4.1 3.9 3.0 2.9 4.1 4.5 5.2 4.5